Home > Weather > Eupen > Past weeks

Flag for Belgium Past Weather in Eupen, Belgium — Yesterday and Last 2 Weeks

Now
60 °F

Clear.


Feels Like: 60 °F
Forecast: 58 / 72 °F
Wind: 1 mph from Southwest

Location: Spa / La Sauveniere

Current Time: Jul 25, 2016 at 2:27:56 AM

Latest Report: Jul 25, 2016 at 2:00 AM


Visibility: 18 mi

Pressure: 30.14 "Hg

Humidity: 89%

Dew Point: 56 °F

Location of EupenLocation

Past Weather in Eupen — Graph

°F

Eupen Temperature Yesterday

Maximum temperature yesterday: 72 °F (at 6:00 PM)
Minimum temperature yesterday: 60 °F (at 8:00 AM)
Average temperature yesterday: 65 °F

High & Low Weather Summary for the Past Weeks

 TemperatureHumidityPressure
High88 °F (Jul 20, 4:00 PM)98% (Jul 24, 4:00 AM)30.34 "Hg (Jul 24, 4:00 AM)
Low47 °F (Jul 15, 4:00 AM)34% (Jul 20, 2:00 PM)29.79 "Hg (Jul 10, 7:00 PM)
Average64 °F74%30.06 "Hg
* Reported Jul 10 1:00 AM — Jul 25 1:00 AM, Eupen, Weather by CustomWeather, © 2016

Note: Actual official high and low records may vary slightly from our data, if they occured in-between our weather recording intervals... More about our weather records

Advertising

Eupen Weather History for the Previous 24 Hours

Scroll right to see more
 ConditionsComfort  
Time TempWeatherWind HumidityBarometerVisibility
1:00 AM
Mon, Jul 25
63 °FClear.2 mph81%30.13 "Hg19 mi
12:00 AM66 °FClear.1 mph80%30.12 "Hg15 mi
11:00 PM
Sun, Jul 24
66 °FClear.2 mph79%30.12 "Hg12 mi
10:00 PM67 °FClear.1 mph83%30.11 "Hg7 mi
9:00 PM68 °FSunny.No wind83%30.09 "Hg9 mi
8:00 PM71 °FLight rain. Sunny.1 mph76%30.08 "Hg7 mi
7:00 PM72 °FSunny.2 mph69%30.08 "Hg8 mi
6:00 PM72 °FSunny.3 mph67%30.09 "Hg8 mi
4:00 PM70 °FSunny.2 mph74%30.10 "HgN/A
3:00 PM70 °FSunny.1 mph75%30.11 "HgN/A
2:00 PM68 °FSunny.2 mph78%30.13 "HgN/A
1:00 PM66 °FSunny.2 mph80%30.14 "Hg3 mi
12:00 PM62 °FPassing clouds.1 mph91%30.14 "HgN/A
11:00 AM61 °FScattered clouds.1 mph93%30.15 "Hg0 mi
10:00 AM60 °FDense fog.2 mph96%30.15 "Hg0 mi
9:00 AM60 °FSunny.2 mph94%30.14 "Hg0 mi
8:00 AM60 °FDense fog.2 mph98%30.13 "Hg0 mi
7:00 AM61 °FDense fog.2 mph98%30.13 "Hg0 mi
6:00 AM61 °FDense fog.1 mph96%30.13 "Hg0 mi
5:00 AM61 °FLight rain. Dense fog.2 mph96%30.13 "Hg0 mi
4:00 AM62 °FLight rain. Dense fog.2 mph98%30.13 "Hg0 mi
3:00 AM62 °FLight rain. Dense fog.3 mph95%30.14 "Hg0 mi
2:00 AM63 °FPassing clouds.2 mph94%30.13 "Hg0 mi
Weather by CustomWeather, © 2016

See weather overviewHow to use our weather pages